Location: B?lite?ti
(46.2833°N, 22.7333°E)
Time: 16:17:58
(UTC+00:00)

Cosmos 1818 - Pass Details

Date: 24 January 2021
Orbit: 773 x 800 km, 65.0° (Epoch: 28 February)

Event Time Altitude Azimuth Distance (km) Brightness Sun altitude
Rises 16:18:39 0° 215° (SW) 3,265 7.7 -9.9°
Reaches altitude 10° 16:21:02 10° 216° (SW) 2,344 6.9 -10.3°
Maximum altitude 16:26:27 87° 306° (NW) 800 3.6 -11.2°
Drops below altitude 10° 16:31:56 10° 36° (NE) 2,376 5.6 -12.1°
Enters shadow 16:32:13 - 36° (NE) 2,481 5.7 -12.1°
